Weather History for Eelde, Netherlands

Change the Weather History Date:

Friday, January 4, 2013

  Actual Average Record
Temperature  
Mean Temperature 46 °F -  
Max Temperature 48 °F 39 °F 53 °F (1999)
Min Temperature 44 °F 29 °F 19 °F (2002)
Degree Days  
Heating Degree Days 19    
Moisture  
Dew Point 47 °F    
Average Humidity 94    
Maximum Humidity 100    
Minimum Humidity 87    
Precipitation  
Precipitation 0.01 in 0.08 in - ()
Sea Level Pressure  
Sea Level Pressure 30.46 in    
Wind  
Wind Speed 10 mph ()    
Max Wind Speed 16 mph    
Max Gust Speed -    
Visibility 4.2 miles    
Events Rain    
Averages and records for this station are not official NWS values.
T = Trace of Precipitation, MM = Missing Value Source: Averaged Metar Reports

Daily Weather History Graph

Daily Weather History Graph

Search for Another Location

Airport:

Trip Planner

Search our weather history database for the weather conditions in past years. The results will help you decide how hot, cold, wet, or windy it might be!

Date:

Astronomy

Jan. 04, 2013 Rise Set
Actual Time 8:46 AM CET 4:30 PM CET
Civil Twilight 8:05 AM CET 5:12 PM CET
Nautical Twilight 7:20 AM CET 5:57 PM CET
Astronomical Twilight 6:38 AM CET 6:39 PM CET
Moon No Moon Rise 11:18 AM CET (1/4)
Length of Visible Light 9h 07m
Length of Day
7h 43m
Waning Gibbous, 58% of the Moon is Illuminated
Jan 4
Waning Gibbous
Jan 5
Last Quarter
Jan 11
New
Jan 19
First Quarter
Jan 27
Full

Hourly Weather History & Observations

Time (CET) Temp. Windchill Dew Point Humidity Pressure Visibility Wind Dir Wind Speed Gust Speed Precip Events Conditions
12:25 AM 46.4 °F 41.5 °F 44.6 °F 93% 30.45 in 4.3 mi WSW 10.4 mph - N/A   Overcast
12:55 AM 46.4 °F 41.5 °F 44.6 °F 93% 30.45 in 5.0 mi WSW 10.4 mph - N/A   Scattered Clouds
1:00 AM 46 °F - 45 °F 93% 30.48 in 5 mi West 8.9 mph - -   Mist
1:25 AM 46.4 °F 41.9 °F 44.6 °F 93% 30.45 in 4.3 mi WSW 9.2 mph - N/A   Overcast
1:55 AM 46.4 °F 41.9 °F 46.4 °F 100% 30.48 in 3.1 mi West 9.2 mph - N/A   Overcast
2:25 AM 46.4 °F 42.4 °F 46.4 °F 100% 30.48 in - West 8.1 mph - N/A   Overcast
2:55 AM 46.4 °F 41.9 °F 46.4 °F 100% 30.45 in 3.1 mi WSW 9.2 mph - N/A   Overcast
3:25 AM 48.2 °F - 46.4 °F 93% 30.45 in - WSW 11.5 mph - N/A   Overcast
3:55 AM 48.2 °F - 46.4 °F 93% 30.45 in - WSW 10.4 mph - N/A   Overcast
4:00 AM 48 °F - 47 °F 95% 30.47 in 2 mi WSW 11.2 mph - -   Mist
4:25 AM 48.2 °F - 46.4 °F 93% 30.45 in - WSW 10.4 mph - N/A   Overcast
4:55 AM 48.2 °F - 48.2 °F 100% 30.45 in - WSW 10.4 mph - N/A   Overcast
5:25 AM 48.2 °F - 48.2 °F 100% 30.45 in 1.4 mi West 11.5 mph - N/A   Overcast
5:55 AM 48.2 °F - 48.2 °F 100% 30.45 in 1.6 mi West 11.5 mph - N/A   Overcast
6:25 AM 48.2 °F - 48.2 °F 100% 30.45 in 1.9 mi West 11.5 mph - N/A   Overcast
6:55 AM 48.2 °F - 48.2 °F 100% 30.45 in - West 11.5 mph - N/A   Overcast
7:00 AM 49 °F - 47 °F 92% 30.46 in 2 mi West 11.2 mph - -   Mist
7:25 AM 48.2 °F - 48.2 °F 100% 30.45 in - West 12.7 mph - N/A   Overcast
7:55 AM 48.2 °F - 46.4 °F 93% 30.45 in 1.8 mi West 13.8 mph - N/A   Overcast
8:25 AM 48.2 °F - 46.4 °F 93% 30.45 in 1.6 mi West 13.8 mph - N/A   Overcast
8:55 AM 48.2 °F - 46.4 °F 93% 30.45 in 1.6 mi West 11.5 mph - N/A   Overcast
9:25 AM 48.2 °F - 46.4 °F 93% 30.48 in 1.7 mi West 12.7 mph - N/A   Overcast
9:55 AM 48.2 °F - 46.4 °F 93% 30.48 in 2.2 mi West 11.5 mph - N/A   Overcast
10:25 AM 48.2 °F - 46.4 °F 93% 30.48 in - West 10.4 mph - N/A   Overcast
10:55 AM 48.2 °F - 46.4 °F 93% 30.48 in - West 11.5 mph - N/A   Overcast
11:25 AM 48.2 °F - 48.2 °F 100% 30.48 in - West 13.8 mph - N/A   Overcast
11:55 AM 48.2 °F - 46.4 °F 93% 30.48 in - West 13.8 mph - N/A   Overcast
12:25 PM 48.2 °F - 46.4 °F 93% 30.48 in 3.1 mi West 15.0 mph - N/A   Drizzle
12:55 PM 48.2 °F - 46.4 °F 93% 30.48 in 3.1 mi West 16.1 mph - N/A   Scattered Clouds
1:00 PM 48 °F - 47 °F 95% 30.48 in 3 mi West 13.4 mph - - Rain Rain
1:25 PM 48.2 °F - 46.4 °F 93% 30.48 in 3.1 mi West 12.7 mph - N/A Rain Drizzle
1:55 PM 48.2 °F - 46.4 °F 93% 30.45 in 3.1 mi West 13.8 mph - N/A   Overcast
2:25 PM 48.2 °F - 46.4 °F 93% 30.45 in 2.8 mi West 12.7 mph - N/A   Overcast
2:55 PM 48.2 °F - 48.2 °F 100% 30.45 in 3.1 mi West 13.8 mph - N/A Rain Light Rain
3:25 PM 48.2 °F - 48.2 °F 100% 30.45 in 3.7 mi West 12.7 mph - N/A   Overcast
3:55 PM 48.2 °F - 46.4 °F 93% 30.45 in 3.7 mi West 12.7 mph - N/A   Overcast
4:00 PM 48 °F - 47 °F 96% 30.46 in 4 mi West 13.4 mph - - Rain Rain
4:25 PM 48.2 °F - 46.4 °F 93% 30.45 in 4.3 mi West 11.5 mph - N/A   Overcast
4:55 PM 48.2 °F - 46.4 °F 93% 30.45 in 5.0 mi West 10.4 mph - N/A   Overcast
5:25 PM 48.2 °F - 46.4 °F 93% 30.45 in 5.0 mi West 10.4 mph - N/A   Overcast
5:55 PM 48.2 °F - 46.4 °F 93% 30.45 in 5.0 mi West 11.5 mph - N/A   Overcast
6:25 PM 48.2 °F - 46.4 °F 93% 30.45 in 6.2 mi West 9.2 mph - N/A   Overcast
6:55 PM 48.2 °F - 46.4 °F 93% 30.45 in 6.2 mi West 10.4 mph - N/A   Overcast
7:00 PM 49 °F - 46 °F 87% 30.47 in 7 mi West 11.2 mph - -   Partly Cloudy
7:25 PM 48.2 °F - 46.4 °F 93% 30.45 in 6.2 mi West 11.5 mph - N/A   Overcast
7:55 PM 48.2 °F - 46.4 °F 93% 30.45 in 6.2 mi West 10.4 mph - N/A   Overcast
8:25 PM 48.2 °F - 46.4 °F 93% 30.45 in 6.2 mi West 11.5 mph - N/A   Overcast
8:55 PM 48.2 °F - 46.4 °F 93% 30.45 in 6.2 mi West 12.7 mph - N/A   Overcast
9:25 PM 48.2 °F - 46.4 °F 93% 30.45 in 6.2 mi West 11.5 mph - N/A   Overcast
9:55 PM 48.2 °F - 46.4 °F 93% 30.45 in 6.2 mi West 10.4 mph - N/A   Overcast
10:00 PM 47 °F - 46 °F 92% 30.47 in 7 mi West 8.9 mph - -   Overcast
10:25 PM 48.2 °F - 46.4 °F 93% 30.45 in 6.2 mi West 12.7 mph - N/A   Overcast
10:55 PM 48.2 °F - 44.6 °F 87% 30.45 in 6.2 mi WNW 11.5 mph - N/A   Overcast
11:25 PM 48.2 °F - 44.6 °F 87% 30.45 in 6.2 mi West 11.5 mph - N/A   Overcast
11:55 PM 46.4 °F 41.1 °F 44.6 °F 93% 30.45 in 6.2 mi West 11.5 mph - N/A   Overcast